Hourly Weather Noisiel

Today, 14 July, Tuesday

Time Temperature Precipitation Wind Pressure Humidity
00:00 +17°C° 0 mm 3 mps 758 mmHg 63%
01:00 +16°C° 0 mm 2 mps 758 mmHg 65%
02:00 +16°C° 0 mm 2 mps 758 mmHg 67%
03:00 +15°C° 0 mm 2 mps 757 mmHg 69%
04:00 +16°C° 0 mm 1 mps 757 mmHg 67%
05:00 +16°C° 0 mm 1 mps 757 mmHg 65%
06:00 +16°C° 0 mm 1 mps 757 mmHg 63%
07:00 +18°C° 0.2 mm 1 mps 757 mmHg 65%
08:00 +18°C° 0.2 mm 1 mps 757 mmHg 66%
09:00 +18°C° 0.2 mm 1 mps 757 mmHg 68%
10:00 +19°C° 0.1 mm 1 mps 757 mmHg 62%
11:00 +20°C° 0.1 mm 2 mps 756 mmHg 57%
12:00 +21°C° 0.1 mm 2 mps 756 mmHg 52%
13:00 +22°C° 0.1 mm 3 mps 756 mmHg 52%
14:00 +24°C° 0.1 mm 3 mps 756 mmHg 53%
15:00 +25°C° 0.1 mm 3 mps 755 mmHg 53%
16:00 +24°C° 1.1 mm 3 mps 755 mmHg 60%
17:00 +22°C° 1.1 mm 3 mps 755 mmHg 68%
18:00 +21°C° 1.1 mm 3 mps 755 mmHg 75%
19:00 +20°C° 0.6 mm 3 mps 755 mmHg 78%
20:00 +19°C° 0.6 mm 3 mps 755 mmHg 81%
21:00 +18°C° 0.6 mm 3 mps 755 mmHg 85%
22:00 +17°C° 0 mm 3 mps 755 mmHg 85%
23:00 +17°C° 0 mm 2 mps 755 mmHg 85%

Tomorrow, 15 July, Wednesday

Time Temperature Precipitation Wind Pressure Humidity
00:00 +16°C° 0 mm 2 mps 755 mmHg 85%
01:00 +16°C° 0 mm 2 mps 755 mmHg 85%
02:00 +15°C° 0 mm 2 mps 754 mmHg 85%
03:00 +15°C° 0 mm 1 mps 754 mmHg 85%
04:00 +15°C° 0 mm 1 mps 755 mmHg 84%
05:00 +16°C° 0 mm 1 mps 755 mmHg 82%
06:00 +16°C° 0 mm 1 mps 755 mmHg 81%
07:00 +18°C° 0.2 mm 1 mps 755 mmHg 77%
08:00 +19°C° 0.2 mm 1 mps 756 mmHg 73%
09:00 +20°C° 0.2 mm 1 mps 756 mmHg 69%
10:00 +20°C° 0.4 mm 1 mps 756 mmHg 70%
11:00 +20°C° 0.4 mm 1 mps 756 mmHg 70%
12:00 +20°C° 0.4 mm 1 mps 756 mmHg 71%
13:00 +20°C° 0.2 mm 2 mps 756 mmHg 67%
14:00 +21°C° 0.2 mm 2 mps 756 mmHg 64%
15:00 +21°C° 0.2 mm 2 mps 756 mmHg 60%
16:00 +21°C° 0.1 mm 2 mps 756 mmHg 63%
17:00 +20°C° 0.1 mm 2 mps 757 mmHg 65%
18:00 +20°C° 0.1 mm 3 mps 757 mmHg 67%
19:00 +19°C° 0 mm 2 mps 757 mmHg 71%
20:00 +17°C° 0 mm 2 mps 758 mmHg 74%
21:00 +16°C° 0 mm 2 mps 758 mmHg 78%
22:00 +15°C° 0 mm 2 mps 758 mmHg 80%
23:00 +15°C° 0 mm 2 mps 758 mmHg 82%

Day after tomorrow, 16 July, Thursday

Time Temperature Precipitation Wind Pressure Humidity
00:00 +14°C° 0 mm 2 mps 759 mmHg 83%
01:00 +14°C° 0 mm 2 mps 758 mmHg 85%
02:00 +14°C° 0 mm 1 mps 758 mmHg 86%
03:00 +13°C° 0 mm 1 mps 758 mmHg 87%
04:00 +14°C° 0 mm 1 mps 759 mmHg 86%
05:00 +15°C° 0 mm 1 mps 759 mmHg 85%
06:00 +15°C° 0 mm 1 mps 759 mmHg 83%
07:00 +16°C° 0 mm 1 mps 759 mmHg 80%
08:00 +17°C° 0 mm 2 mps 759 mmHg 77%
09:00 +18°C° 0 mm 2 mps 759 mmHg 74%
10:00 +19°C° 0 mm 2 mps 759 mmHg 73%
11:00 +19°C° 0 mm 2 mps 759 mmHg 72%
12:00 +20°C° 0 mm 2 mps 760 mmHg 71%
13:00 +21°C° 0.1 mm 2 mps 759 mmHg 68%
14:00 +23°C° 0.1 mm 2 mps 759 mmHg 65%
15:00 +24°C° 0.1 mm 2 mps 759 mmHg 63%
16:00 +23°C° 0.1 mm 2 mps 759 mmHg 65%
17:00 +23°C° 0.1 mm 2 mps 759 mmHg 67%
18:00 +23°C° 0.1 mm 2 mps 759 mmHg 70%
19:00 +20°C° 0 mm 2 mps 759 mmHg 74%
20:00 +19°C° 0 mm 2 mps 759 mmHg 77%
21:00 +18°C° 0 mm 2 mps 759 mmHg 81%
22:00 +17°C° 0 mm 2 mps 759 mmHg 83%
23:00 +17°C° 0 mm 2 mps 759 mmHg 85%

17 July, Friday

Time Temperature Precipitation Wind Pressure Humidity
00:00 +16°C° 0 mm 2 mps 759 mmHg 87%
01:00 +16°C° 0 mm 2 mps 759 mmHg 87%
02:00 +16°C° 0 mm 1 mps 759 mmHg 87%
03:00 +16°C° 0 mm 1 mps 759 mmHg 87%
04:00 +16°C° 0 mm 1 mps 759 mmHg 85%
05:00 +18°C° 0 mm 1 mps 759 mmHg 83%
06:00 +18°C° 0 mm 1 mps 759 mmHg 81%
07:00 +19°C° 0 mm 1 mps 759 mmHg 76%
08:00 +21°C° 0 mm 1 mps 759 mmHg 70%
09:00 +22°C° 0 mm 1 mps 759 mmHg 65%
10:00 +21°C° 0 mm 2 mps 759 mmHg 62%
11:00 +23°C° 0 mm 2 mps 759 mmHg 58%
12:00 +24°C° 0 mm 2 mps 759 mmHg 54%
13:00 +24°C° 0 mm 2 mps 759 mmHg 55%
14:00 +24°C° 0 mm 1 mps 759 mmHg 55%
15:00 +24°C° 0 mm 1 mps 758 mmHg 56%
16:00 +24°C° 0 mm 1 mps 758 mmHg 59%
17:00 +24°C° 0 mm 1 mps 758 mmHg 61%
18:00 +24°C° 0 mm 1 mps 758 mmHg 64%
19:00 +22°C° 0 mm 1 mps 758 mmHg 69%
20:00 +21°C° 0 mm 1 mps 759 mmHg 73%
21:00 +20°C° 0 mm 1 mps 759 mmHg 78%
22:00 +19°C° 0 mm 1 mps 759 mmHg 80%
23:00 +19°C° 0 mm 1 mps 759 mmHg 82%

18 July, Saturday

Time Temperature Precipitation Wind Pressure Humidity
00:00 +18°C° 0 mm 1 mps 759 mmHg 84%
01:00 +18°C° 0 mm 1 mps 758 mmHg 85%
02:00 +16°C° 0 mm 1 mps 758 mmHg 87%
03:00 +16°C° 0 mm 1 mps 758 mmHg 88%
04:00 +16°C° 0 mm 1 mps 758 mmHg 86%
05:00 +18°C° 0 mm 1 mps 758 mmHg 84%
06:00 +18°C° 0 mm 1 mps 758 mmHg 81%
07:00 +20°C° 0 mm 1 mps 758 mmHg 75%
08:00 +22°C° 0 mm 1 mps 758 mmHg 68%
09:00 +24°C° 0 mm 1 mps 758 mmHg 61%
10:00 +25°C° 0 mm 1 mps 758 mmHg 56%
11:00 +26°C° 0 mm 1 mps 758 mmHg 51%
12:00 +28°C° 0 mm 1 mps 758 mmHg 46%
13:00 +28°C° 0 mm 1 mps 757 mmHg 43%
14:00 +29°C° 0 mm 1 mps 757 mmHg 41%
15:00 +29°C° 0 mm 1 mps 757 mmHg 38%
16:00 +28°C° 0 mm 1 mps 757 mmHg 42%
17:00 +28°C° 0 mm 2 mps 756 mmHg 46%
18:00 +27°C° 0 mm 2 mps 756 mmHg 50%
19:00 +25°C° 0 mm 2 mps 756 mmHg 56%
20:00 +23°C° 0 mm 2 mps 757 mmHg 62%
21:00 +20°C° 0 mm 2 mps 757 mmHg 68%
22:00 +19°C° 0 mm 2 mps 757 mmHg 74%
23:00 +18°C° 0 mm 2 mps 757 mmHg 79%

19 July, Sunday

Time Temperature Precipitation Wind Pressure Humidity
00:00 +17°C° 0 mm 2 mps 757 mmHg 84%
01:00 +17°C° 0 mm 2 mps 757 mmHg 85%
02:00 +16°C° 0 mm 2 mps 756 mmHg 85%
03:00 +16°C° 0 mm 2 mps 756 mmHg 86%
04:00 +16°C° 0 mm 1 mps 756 mmHg 83%
05:00 +18°C° 0 mm 1 mps 756 mmHg 81%
06:00 +18°C° 0 mm 1 mps 756 mmHg 78%
07:00 +20°C° 0 mm 1 mps 756 mmHg 72%
08:00 +22°C° 0 mm 1 mps 756 mmHg 65%
09:00 +24°C° 0 mm 1 mps 757 mmHg 58%
10:00 +25°C° 0 mm 1 mps 756 mmHg 53%
11:00 +26°C° 0 mm 1 mps 756 mmHg 48%
12:00 +28°C° 0 mm 2 mps 756 mmHg 43%
13:00 +28°C° 0 mm 2 mps 756 mmHg 42%
14:00 +28°C° 0 mm 2 mps 756 mmHg 41%
15:00 +28°C° 0 mm 3 mps 756 mmHg 40%
16:00 +27°C° 0 mm 3 mps 756 mmHg 45%
17:00 +25°C° 0 mm 4 mps 755 mmHg 51%
18:00 +23°C° 0 mm 4 mps 755 mmHg 57%
19:00 +21°C° 0 mm 4 mps 756 mmHg 65%
20:00 +20°C° 0 mm 4 mps 756 mmHg 73%
21:00 +18°C° 0 mm 3 mps 757 mmHg 81%
22:00 +17°C° 0 mm 3 mps 757 mmHg 84%
23:00 +17°C° 0 mm 3 mps 757 mmHg 87%
Show more